Date,TemperatureHighF,TemperatureAvgF,TemperatureLowF,DewpointHighF,DewpointAvgF,DewpointLowF,HumidityHigh,HumidityAvg,HumidityLow,PressureMaxIn,PressureMinIn,WindSpeedMaxMPH,WindSpeedAvgMPH,GustSpeedMaxMPH,PrecipitationSumIn
2013-3-1,54.0,45.2,37.0,39.0,34.7,30.0,100,68,43,29.95,29.86,14,6,20,0.00
2013-3-2,52.0,41.4,30.0,39.0,34.8,30.0,100,79,43,29.94,29.84,15,6,21,0.00
2013-3-3,50.0,39.7,30.0,37.0,29.2,25.0,100,69,39,30.01,29.90,16,8,23,0.00
2013-3-4,54.0,40.3,28.0,36.0,25.7,19.0,93,61,25,30.18,30.01,15,7,22,0.00
2013-3-5,66.0,52.7,36.0,57.0,43.4,34.0,100,74,36,30.14,29.70,22,9,32,0.00
2013-3-6,59.0,48.7,41.0,57.0,32.1,25.0,100,54,34,30.07,29.66,25,16,36,0.00
2013-3-7,59.0,44.4,30.0,37.0,32.2,28.0,93,65,38,30.23,30.07,16,6,22,0.00
2013-3-8,59.0,45.4,34.0,36.0,29.9,27.0,93,58,30,30.29,30.17,16,7,25,0.00
2013-3-9,63.0,47.5,36.0,43.0,35.1,28.0,100,65,36,30.33,30.25,14,6,18,0.00
2013-3-10,64.0,48.1,34.0,46.0,38.4,28.0,100,75,29,30.32,30.24,12,4,16,0.00
2013-3-11,72.0,58.4,39.0,61.0,52.5,39.0,100,83,53,30.25,29.95,17,6,28,0.00
2013-3-12,72.0,64.2,54.0,64.0,60.9,48.0,100,88,71,29.95,29.81,23,10,29,0.00
2013-3-13,64.0,54.6,43.0,48.0,36.3,28.0,93,55,27,30.13,29.94,23,9,28,0.00
2013-3-14,55.0,43.9,34.0,34.0,25.4,19.0,86,50,30,30.31,30.10,15,8,22,0.00
2013-3-15,64.0,47.3,28.0,46.0,34.7,28.0,100,66,36,30.24,30.05,13,6,18,0.00
2013-3-16,81.0,63.8,55.0,52.0,47.9,45.0,76,58,28,30.05,29.85,21,13,27,0.00
2013-3-17,79.0,64.3,54.0,57.0,51.1,46.0,87,63,41,30.06,29.94,16,10,22,0.00
2013-3-18,61.0,56.6,54.0,61.0,54.5,48.0,100,93,63,30.12,29.87,12,6,0,0.00
2013-3-19,73.0,60.5,46.0,64.0,51.0,41.0,100,76,33,30.01,29.83,15,8,30,0.00
2013-3-20,61.0,51.5,36.0,45.0,31.8,21.0,100,51,24,30.13,29.85,15,6,18,0.00
2013-3-21,55.0,45.2,34.0,36.0,28.6,23.0,100,56,30,29.95,29.78,15,8,24,0.00
2013-3-22,52.0,42.4,34.0,39.0,26.5,19.0,81,54,34,30.11,29.95,14,6,18,0.00
2013-3-23,50.0,44.4,37.0,48.0,42.2,36.0,100,93,57,30.07,29.92,12,4,16,0.00
2013-3-24,63.0,52.5,45.0,63.0,52.2,45.0,100,99,87,29.93,29.46,28,11,41,0.00
2013-3-25,55.0,48.1,43.0,46.0,35.5,27.0,100,65,37,29.94,29.59,30,15,41,0.00
2013-3-26,54.0,42.9,34.0,30.0,27.7,27.0,74,55,37,30.17,29.94,17,9,27,0.00
2013-3-27,57.0,44.0,32.0,36.0,30.4,27.0,93,64,33,30.27,30.17,15,6,23,0.00
2013-3-28,59.0,44.7,32.0,34.0,29.0,27.0,93,58,30,30.31,30.19,13,6,25,0.00
2013-3-29,61.0,46.1,30.0,41.0,34.4,28.0,100,68,38,30.37,30.24,13,5,17,0.00
2013-3-30,70.0,54.7,46.0,52.0,47.1,41.0,100,78,43,30.27,30.10,13,4,16,0.00
2013-3-31,73.0,63.7,48.0,61.0,54.2,-99.9,100,76,56,30.12,29.91,17,11,29,0.00